When you browse on this site, cookies collect data to enhance your experience and personalize the content and advertising you see.
Visit our Privacy Policy to learn more. By continuing to use the site, you agree to this use of cookies and data.
  • en Suisse
  • Liste des pays
  • À 7 jours
  • Température de l'eau
  • Carte satellitaire
  • Carte météo
  • Widgets météo
  • user-avatar
    Se connecter

    Météo par heure à Playuts'

    Ce jour, 21 Avril, Dimanche

    Heure Température Précipitation Vent Pression Humidité
    00:00 +10°C° 0 mm 1 m/s 733 mmHg 85%
    01:00 +10°C° 0 mm 1 m/s 732 mmHg 83%
    02:00 +10°C° 0 mm 1 m/s 732 mmHg 83%
    03:00 +8°C° 0 mm 2 m/s 732 mmHg 86%
    04:00 +7°C° 0.1 mm 4 m/s 732 mmHg 97%
    05:00 +7°C° 0 mm 2 m/s 731 mmHg 97%
    06:00 +7°C° 0 mm 2 m/s 731 mmHg 98%
    07:00 +8°C° 0 mm 2 m/s 731 mmHg 95%
    08:00 +10°C° 0 mm 3 m/s 731 mmHg 89%
    09:00 +12°C° 0 mm 2 m/s 731 mmHg 83%
    10:00 +13°C° 0 mm 1 m/s 731 mmHg 82%
    11:00 +14°C° 0 mm 1 m/s 730 mmHg 81%
    12:00 +15°C° 0 mm 2 m/s 730 mmHg 81%
    13:00 +12°C° 0.7 mm 3 m/s 730 mmHg 87%
    14:00 +15°C° 0 mm 2 m/s 729 mmHg 76%
    15:00 +13°C° 0.4 mm 4 m/s 729 mmHg 86%
    16:00 +11°C° 1 mm 4 m/s 728 mmHg 92%
    17:00 +13°C° 0 mm 2 m/s 728 mmHg 81%
    18:00 +12°C° 0 mm 2 m/s 728 mmHg 88%
    19:00 +12°C° 0 mm 1 m/s 728 mmHg 93%
    20:00 +10°C° 0 mm 2 m/s 728 mmHg 99%
    21:00 +10°C° 0 mm 1 m/s 728 mmHg 100%
    22:00 +10°C° 0 mm 1 m/s 728 mmHg 100%
    23:00 +9°C° 0 mm 1 m/s 728 mmHg 100%

    Demain, 22 Avril, Lundi

    Heure Température Précipitation Vent Pression Humidité
    00:00 +9°C° 0 mm 1 m/s 727 mmHg 100%
    01:00 +7°C° 0 mm 0 m/s 727 mmHg 100%
    02:00 +8°C° 0 mm 1 m/s 727 mmHg 100%
    03:00 +8°C° 0 mm 1 m/s 727 mmHg 100%
    04:00 +7°C° 0 mm 1 m/s 727 mmHg 100%
    05:00 +6°C° 0 mm 1 m/s 727 mmHg 100%
    06:00 +6°C° 0 mm 1 m/s 727 mmHg 100%
    07:00 +7°C° 0 mm 1 m/s 727 mmHg 99%
    08:00 +9°C° 0 mm 1 m/s 728 mmHg 91%
    09:00 +11°C° 0 mm 1 m/s 728 mmHg 87%
    10:00 +13°C° 0 mm 1 m/s 728 mmHg 82%
    11:00 +13°C° 0.2 mm 2 m/s 728 mmHg 86%
    12:00 +13°C° 1.2 mm 2 m/s 728 mmHg 93%
    13:00 +12°C° 1.4 mm 4 m/s 728 mmHg 91%
    14:00 +13°C° 0.1 mm 6 m/s 728 mmHg 89%
    15:00 +14°C° 0.1 mm 2 m/s 728 mmHg 87%
    16:00 +13°C° 0 mm 5 m/s 728 mmHg 83%
    17:00 +13°C° 0 mm 5 m/s 729 mmHg 81%
    18:00 +13°C° 0 mm 6 m/s 729 mmHg 79%
    19:00 +10°C° 0 mm 5 m/s 729 mmHg 80%
    20:00 +9°C° 0 mm 5 m/s 729 mmHg 82%
    21:00 +8°C° 0 mm 4 m/s 730 mmHg 83%
    22:00 +8°C° 0 mm 4 m/s 730 mmHg 83%
    23:00 +7°C° 0 mm 4 m/s 730 mmHg 84%

    Après-demain, 23 Avril, Mardi

    Heure Température Précipitation Vent Pression Humidité
    00:00 +6°C° 0 mm 4 m/s 731 mmHg 85%
    01:00 +6°C° 0 mm 4 m/s 731 mmHg 86%
    02:00 +6°C° 0 mm 4 m/s 731 mmHg 86%
    03:00 +5°C° 0 mm 4 m/s 730 mmHg 84%
    04:00 +5°C° 0 mm 4 m/s 730 mmHg 83%
    05:00 +5°C° 0 mm 4 m/s 730 mmHg 81%
    06:00 +5°C° 0 mm 4 m/s 730 mmHg 81%
    07:00 +6°C° 0 mm 5 m/s 731 mmHg 78%
    08:00 +8°C° 0 mm 6 m/s 731 mmHg 75%
    09:00 +10°C° 0 mm 5 m/s 731 mmHg 74%
    10:00 +11°C° 0 mm 7 m/s 731 mmHg 72%
    11:00 +11°C° 0 mm 7 m/s 731 mmHg 73%
    12:00 +12°C° 0 mm 8 m/s 731 mmHg 72%
    13:00 +12°C° 0 mm 7 m/s 731 mmHg 73%
    14:00 +12°C° 0 mm 7 m/s 731 mmHg 74%
    15:00 +12°C° 0 mm 7 m/s 731 mmHg 80%
    16:00 +11°C° 0 mm 6 m/s 731 mmHg 88%
    17:00 +10°C° 0.1 mm 5 m/s 731 mmHg 95%
    18:00 +10°C° 0 mm 6 m/s 730 mmHg 90%
    19:00 +10°C° 0 mm 6 m/s 730 mmHg 91%
    20:00 +9°C° 0.1 mm 6 m/s 730 mmHg 97%
    21:00 +9°C° 0.7 mm 5 m/s 731 mmHg 96%
    22:00 +9°C° 0.1 mm 5 m/s 730 mmHg 91%
    23:00 +9°C° 0 mm 5 m/s 730 mmHg 89%

    24 Avril, Mercredi

    Heure Température Précipitation Vent Pression Humidité
    00:00 +9°C° 0 mm 5 m/s 730 mmHg 88%
    01:00 +9°C° 0 mm 6 m/s 730 mmHg 88%
    02:00 +9°C° 0 mm 6 m/s 730 mmHg 88%
    03:00 +8°C° 0.3 mm 6 m/s 730 mmHg 91%
    04:00 +8°C° 3.2 mm 6 m/s 730 mmHg 91%
    05:00 +8°C° 0.3 mm 6 m/s 731 mmHg 91%
    06:00 +8°C° 0 mm 5 m/s 731 mmHg 94%
    07:00 +8°C° 0.1 mm 4 m/s 731 mmHg 94%
    08:00 +8°C° 0 mm 4 m/s 732 mmHg 93%
    09:00 +8°C° 0.1 mm 4 m/s 732 mmHg 98%
    10:00 +12°C° 0 mm 4 m/s 732 mmHg 90%
    11:00 +13°C° 0 mm 4 m/s 732 mmHg 88%
    12:00 +16°C° 0 mm 6 m/s 733 mmHg 85%
    13:00 +16°C° 0 mm 6 m/s 732 mmHg 83%
    14:00 +17°C° 0 mm 6 m/s 732 mmHg 82%

    25 Avril, Jeudi

    Heure Température Précipitation Vent Pression Humidité

    26 Avril, Vendredi

    Heure Température Précipitation Vent Pression Humidité
    Voir plus